UWE-2

Satellite information

Favourite Embed

Satellite Type and Status

PAYLOADIN ORBIT

Key statistics

Satellite UWE-2 at a glance.

Uptime

5706

Days in orbit

Revolutions

≈ 14.6

Per day

Orbit

SSO

Sun Synchronous Orbit

Inclination

98.4

Latest

Satellite identification and parameters

Extended collection of information and parameters for UWE-2.

Object identification

Identified? True

Debris? False

Object name: UWE-2

International designator: 2009-051D

Object number (NORAD): 35934

Object ID (CCSDS): 35934

Country: GERMANY (GER)

Current information (Y/N): Y

RCS size: SMALL

Orbital parameters

Period: 98.674 minutes

Inclination: 98.4396 deg

SMA: 7073.399 km

Apoapsis: 700.49 km

Periapsis: 690.038 km

RAAN: 20.4101 deg

Eccentricy: 0.0007388

Argument of periapsis: 64.2259 deg

Mean anomaly: 295.9701 deg

Mean motion: 14.59353624 rev/day

Mean motion (dot): 0.00000973 rev/day2

B* drag term: 0.0002159 1/REarth

Two-line elements (TLE)

Creation date: May 8, 2025, 3:01 a.m.

Reference frame: TEME

Reference center: EARTH

Epoch: May 7, 2025, 10:44 p.m. UTC

TLE line 0: 0 UWE-2

TLE line 1: 1 35934U 09051D 25127.94775028 .00000973 00000-0 21590-3 0 9997

TLE line 2: 2 35934 98.4396 20.4101 0007388 64.2259 295.9701 14.59353624829731

Live tracking on map

Real-time ground track for satellite UWE-2.

In-orbit conjunctions

There are no conjunctions computed for UWE-2, at the moment. Check back to stay up to date, as we update our databases every day.

Go to all conjunctions

Associated space launch

Oceansat-2 is an earth observation and oceanography satellite operated by ISRO.

UWE-2 was lifted into orbit during the mission ‘PSLV | Oceansat-2’, on board a PSLV space rocket.

The launch took place on Sept. 23, 2009, 6:21 a.m. from Satish Dhawan Space Centre First Launch Pad.

For more information about the launch, click the button.

Launch to space PSLV | Oceansat-2
PSLV | Oceansat-2

Agency: N/A

Status: Launch Successful

Launch date: Sept. 23, 2009, 6:21 a.m. UTC

Rocket: PSLV

Launch pad: Satish Dhawan Space Centre First Launch Pad

Location: Satish Dhawan Space Centre, India

...

Latest news about this satellite

There are no fresh news available about this satellite. Check back as we update our databases every day.


Newsletter sign-up

Weekly statistics, charts and insights to help you stay on top of the space industry.